Window Rock, AZ

11:08 AM MST on November 20, 2017 (GMT -0700)
Window Rock

Weather History for KRQE - June, 2013

Change the Weather History Date:

Sunday, June 30, 2013

  Actual Average Record
Temperature  
Mean Temperature 72 °F -  
Max Temperature 89 °F 85 °F 96 °F (1960)
Min Temperature 54 °F 52 °F 36 °F (2005)
Cooling Degree Days 6    
Growing Degree Days 22 (Base 50)    
Moisture  
Dew Point 38 °F    
Average Humidity 29    
Maximum Humidity 53    
Minimum Humidity 14    
Precipitation  
Precipitation 0.03 in - - ()
Sea Level Pressure  
Sea Level Pressure 29.82 in    
Wind  
Wind Speed 4 mph (ESE)    
Max Wind Speed 23 mph    
Max Gust Speed 37 mph    
Visibility 10 miles    
Events Rain    
Averages and records for this station are not official NWS values.
T = Trace of Precipitation, MM = Missing Value Source: NWS Daily Summary

Daily Weather History Graph

Daily Weather History Graph

Search for Another Location

Airport or City:

Trip Planner

Search our weather history database for the weather conditions in past years. The results will help you decide how hot, cold, wet, or windy it might be!

Date:

Astronomy

Jun. 30, 2013 Rise Set
Actual Time 6:03 AM MDT 8:36 PM MDT
Civil Twilight 5:33 AM MDT 9:05 PM MDT
Nautical Twilight 4:56 AM MDT 9:43 PM MDT
Astronomical Twilight 4:15 AM MDT 10:24 PM MDT
Moon 12:54 AM MDT (6/30) 2:02 PM MDT (6/30)
Length of Visible Light 15h 32m
Length of Day
14h 32m
Last Quarter, 45% of the Moon is Illuminated
Jun 30
Last Quarter
Jul 8
New
Jul 15
First Quarter
Jul 22
Full
Jul 29
Last Quarter

Hourly Weather History & Observations

Time (MDT) Temp. Dew Point Humidity Pressure Visibility Wind Dir Wind Speed Gust Speed Precip Events Conditions
12:53 AM 68.0 °F 37.0 °F 32% 29.84 in 10.0 mi West 3.5 mph - N/A   Clear
1:53 AM 66.0 °F 37.0 °F 34% 29.83 in 10.0 mi Calm Calm - N/A   Clear
2:53 AM 64.0 °F 37.0 °F 37% 29.84 in 10.0 mi Calm Calm - N/A   Clear
3:53 AM 61.0 °F 37.9 °F 42% 29.88 in 10.0 mi East 4.6 mph - N/A   Clear
4:53 AM 54.0 °F 36.0 °F 51% 29.90 in 10.0 mi Calm Calm - N/A   Clear
5:53 AM 54.0 °F 37.0 °F 53% 29.89 in 10.0 mi Calm Calm - N/A   Clear
7:53 AM 61.0 °F 37.9 °F 42% 29.91 in 10.0 mi Calm Calm - N/A   Clear
8:53 AM 72.0 °F 39.0 °F 30% 29.87 in 10.0 mi Calm Calm - N/A   Clear
9:53 AM 80.1 °F 39.9 °F 24% 29.85 in 10.0 mi Calm Calm - N/A   Clear
10:53 AM 84.0 °F 37.9 °F 19% 29.83 in 10.0 mi Calm Calm - N/A   Clear
11:53 AM 89.1 °F 33.1 °F 14% 29.79 in 10.0 mi Variable 4.6 mph - N/A   Clear
12:53 PM 75.9 °F 51.1 °F 42% 29.85 in 8.0 mi WSW 11.5 mph - 0.00 in Rain Light Rain
1:53 PM 80.1 °F 45.0 °F 29% 29.83 in 10.0 mi South 11.5 mph 16.1 mph 0.03 in   Clear
2:53 PM 77.0 °F 46.0 °F 33% 29.84 in 10.0 mi ESE 6.9 mph - 0.00 in   Scattered Clouds
3:53 PM 86.0 °F 39.0 °F 19% 29.78 in 10.0 mi South 10.4 mph - 0.00 in   Clear
4:53 PM 89.1 °F 34.0 °F 14% 29.77 in 10.0 mi Variable 4.6 mph - N/A   Partly Cloudy
5:53 PM 84.9 °F 33.1 °F 16% 29.78 in 10.0 mi ENE 10.4 mph - N/A   Partly Cloudy
6:53 PM 82.0 °F 33.1 °F 17% 29.78 in 10.0 mi ENE 15.0 mph 21.9 mph N/A   Clear
7:53 PM 79.0 °F 37.0 °F 22% 29.80 in 10.0 mi ENE 19.6 mph 36.8 mph N/A   Partly Cloudy
8:53 PM 77.0 °F 36.0 °F 23% 29.76 in 10.0 mi Calm Calm - N/A   Partly Cloudy
9:53 PM 75.0 °F 37.0 °F 25% 29.78 in 10.0 mi West 4.6 mph - N/A   Clear
10:53 PM 70.0 °F 37.0 °F 30% 29.78 in 10.0 mi Calm Calm - N/A   Clear
11:53 PM 73.9 °F 37.9 °F 27% 29.79 in 10.0 mi NE 23.0 mph 32.2 mph N/A   Mostly Cloudy